Location: Benque
(43.2594°N, 0.9178°E)
Time: 03:31:17
(UTC+00:00)

FengYun 1-2 T - Pass Details

Date: 24 January 2020
Orbit: 846 x 881 km, 98.7° (Epoch: 18 February)

Event Time Altitude Azimuth Distance (km) Brightness Sun altitude
Rises 17:51:19 0° 159° (SSE) 3,450 7.3 -10.0°
Reaches altitude 10° 17:53:41 10° 158° (SSE) 2,520 6.6 -10.5°
Maximum altitude 17:59:17 76° 73° (ENE) 908 4.2 -11.4°
Drops below altitude 10° 18:04:57 10° 349° (N) 2,548 6.7 -12.4°
Sets 18:07:22 0° 348° (NNW) 3,492 7.4 -12.8°
